Flag for U.S.A. Weather past 2 weeks in Cocoa Beach, Florida, U.S.A.

Now
83 °F

Passing clouds.


Feels Like: 91 °F
Forecast: 77 / 87 °F
Wind: 9 mph from South

Location: Cocoa / Patrick Air Force Base

Current Time: Jul 31, 2014 at 10:24:53 PM

Latest Report: Jul 31, 2014 at 9:58 PM


Visibility: 10 mi

Pressure: 29.99 "Hg

Humidity: 76%

Dew point: 75 °F

Location of Cocoa BeachLocation

Historic Weather in Cocoa Beach — Graph

°F

Cocoa Beach temperature yesterday

Maximum temperature yesterday: 90 °F (at 12:58 PM)
Minimum temperature yesterday: 78 °F (at 3:58 AM)
Average temperature yesterday: 83 °F

Past Weeks' High & Low Weather Summary

 TemperatureHumidityPressure
High94 °F (Jul 27, 3:58 PM)97% (Jul 18, 6:58 AM)30.12 "Hg (Jul 18, 6:58 AM)
Low74 °F (Jul 26, 6:58 PM)49% (Jul 27, 4:58 PM)29.93 "Hg (Jul 29, 4:58 PM)
Average83 °F80%30.04 "Hg
* Reported Jul 16 8:58 PM — Jul 31 8:58 PM, Cocoa Beach, Weather by CustomWeather, © 2014

Note: Actual official high and low records may vary slightly from our data, if they occured in-between our weather recording intervals... More about our weather records

Advertising

Cocoa Beach weather history for previous 24 hours

 ConditionsComfort  
Time TempWeatherWind HumidityBarometerVisibility
8:58 PM
Jul 31
84 °FSunny.14 mph80%29.98 "Hg10 mi
7:58 PM85 °FSunny.16 mph76%29.97 "Hg10 mi
6:58 PM85 °FSunny.17 mph75%29.96 "Hg10 mi
5:58 PM87 °FSunny.20 mph76%29.95 "Hg10 mi
4:58 PM87 °FSunny.16 mph76%29.95 "Hg10 mi
3:58 PM87 °FSunny.14 mph77%29.96 "Hg10 mi
2:58 PM87 °FSunny.15 mph77%29.97 "Hg10 mi
1:58 PM86 °FPassing clouds.13 mph76%29.99 "Hg10 mi
12:58 PM86 °FSunny.10 mph75%29.99 "Hg10 mi
11:58 AM86 °FSunny.8 mph74%30.00 "Hg10 mi
10:58 AM86 °FSunny.7 mph74%30.01 "Hg10 mi
9:58 AM84 °FSunny.3 mph77%30.00 "Hg10 mi
8:58 AM82 °FSunny.5 mph82%29.99 "Hg10 mi
7:58 AM80 °FSunny.5 mph89%29.99 "Hg10 mi
6:58 AM79 °FClear.5 mph89%29.97 "Hg10 mi
5:58 AM80 °FClear.6 mph87%29.95 "Hg10 mi
4:58 AM80 °FClear.5 mph85%29.95 "Hg10 mi
3:58 AM81 °FPassing clouds.2 mph82%29.96 "Hg10 mi
2:58 AM81 °FPassing clouds.3 mph81%29.97 "Hg10 mi
1:58 AM81 °FPassing clouds.3 mph81%29.98 "Hg10 mi
12:58 AM81 °FClear.2 mph82%29.98 "Hg10 mi
11:58 PM
Jul 30
82 °FClear.5 mph82%29.98 "Hg10 mi
10:58 PM82 °FPassing clouds.6 mph81%29.99 "Hg10 mi
Weather by CustomWeather, © 2014

See weather overviewHow to use our weather pages